Location: OHP
(43.9325°N, 5.7154°E)
Time: 13:23:06
(UTC+00:00)

ISS - Visible Passes

Search period start: 29 January 2023 00:00
Search period end: 08 February 2023 00:00
Orbit: 413 x 419 km, 51.6° (Epoch: 29 January)

Date Brightness Start Highest point End Pass type
(mag) Time Alt. Az. Time Alt. Az. Time Alt. Az.
29 Jan -3.0 18:20:21 10° NW 18:23:28 37° NNE 18:23:28 37° NNE visible
30 Jan -2.6 17:31:45 10° NW 17:34:44 29° NNE 17:37:02 14° ENE visible
30 Jan -1.6 19:08:20 10° WNW 19:09:57 26° WNW 19:09:57 26° WNW visible
31 Jan -3.9 18:19:38 10° NW 18:23:01 74° NNE 18:23:36 56° E visible
01 Feb -3.4 17:30:58 10° NW 17:34:15 49° NNE 17:37:23 11° ESE visible
01 Feb -1.6 19:07:57 10° WNW 19:10:18 25° WSW 19:10:18 25° WSW visible
02 Feb -2.7 18:18:58 10° WNW 18:22:12 44° SW 18:24:15 19° SSE visible
03 Feb -3.6 17:30:06 10° WNW 17:33:28 75° SW 17:36:49 10° SE visible
03 Feb -0.5 19:09:08 10° WSW 19:09:39 10° SW 19:10:09 10° SW visible
04 Feb -0.9 18:18:44 10° W 18:21:03 18° SW 18:23:21 10° S visible
05 Feb -1.6 17:29:25 10° WNW 17:32:21 29° SW 17:35:18 10° SSE visible
07 Feb -0.3 17:29:44 10° WSW 17:30:56 12° SW 17:32:08 10° SSW visible
